sat.trackr.live / text

‹ back to catalog

STARLINK-3845

NORAD 52541 · 2022-051J

PAYLOAD ACTIVE UNKNOWN

§ Identity

Operator
Country
US
Launch date
2022-05-13
Launch site
AFWTR
Launch vehicle
Mass (kg)
RCS (m²)

Purposes: comms

External: N2YO · Heavens-Above · Gunter

§ Orbital elements

Epoch: 2026-09-19T22:06:44.343648Z

Period
93.79 min
Inclination
53.1598°
Eccentricity
0.0001235
Mean motion
15.35401513 rev/d
Perigee alt
458.9 km
Apogee alt
460.6 km
Semi-major
6,837.9 km
B*
1.2479e-5
RAAN
328.7615°
Arg perigee
81.8758°
Mean anomaly
278.2385°
Rev number
24,087

§ Raw data

STARLINK-38451 52541U 22051J   26262.92134657  .00000055  00000+0  12479-4 0  99982 52541  53.1598 328.7615 0001235  81.8758 278.2385 15.35401513240874

JSON: /api/v1/satellites/52541 · /tle

For live sub-satellite position, see the globe view (requires WebGL).

§ Visibility from observer

Set your observer location to see the next 7 days of passes ≥ 10°. The values pass through the URL so the page stays shareable.

No JS? Fill the form by hand. The geolocation button needs JavaScript.